Regional Weather Roundup
Issued by NWS

Home | Current Version | Previous Version | Text Only | Print | Product List | Glossary Off
Versions: 1 2 3 4 5 6 7 8 9 10 11 12 13 14 15 16 17 18 19 20 21 22 23 24 25 26 27 28 29 30 31 32 33 34 35 36 37 38 39 40 41 42 43 44 45 46 47 48 49 50

000
ASUS45 KBOU 160010
RWRCO

WEATHER ROUNDUP FOR COLORADO
NATIONAL WEATHER SERVICE DENVER/BOULDER CO
500 PM MST FRI DEC 15 2017

NOTE: "FAIR" INDICATES FEW OR NO CLOUDS BELOW 12000 FEET WITH NO
SIGNIFICANT WEATHER AND/OR OBSTRUCTIONS TO VISIBILITY.

COZ001>005-013-030-031-160100-
...NORTHWEST COLORADO...

CITY           SKY/WX    TMP DP  RH WIND       PRES   REMARKS
CRAIG          FAIR      26   9  48 CALM      30.09F
HAYDEN         FAIR      31  17  56 SE5       30.10F WCI  26
MEEKER         FAIR      38   6  26 SW7       30.09F
RABBIT EARS PA FAIR      28   1  31 SW8       30.13F WCI  20
STEAMBOAT SPGS FAIR      32  13  44 CALM      30.10F
WALDEN         FAIR      32   3  29 S10       30.08F WCI  24
$$

COZ006>008-011-160100-
...WEST CENTRAL VALLEYS...

CITY           SKY/WX    TMP DP  RH WIND       PRES   REMARKS
GRAND JUNCTION FAIR      42  11  28 CALM      30.14F
MONTROSE       FAIR      40   8  26 SE3       30.17F
EAGLE          FAIR      28  14  55 S5        30.17F WCI  23
RIFLE          FAIR      34   5  29 S5        30.15F WCI  30
DELTA          FAIR      42   5  21 CALM      30.17S
NUCLA          FAIR      45   0  15 CALM      30.21F
$$

COZ017>023-064>068-160100-
...SOUTHWEST COLORADO...

CITY           SKY/WX    TMP DP  RH WIND       PRES   REMARKS
DURANGO        FAIR      38  18  44 SW7       30.16S
CORTEZ         FAIR      38   9  30 SW3       30.17F
PAGOSA SPRINGS FAIR      33   7  32 CALM      30.17S
TELLURIDE      FAIR      35 -12  13 W7        30.22S WCI  29
WOLF CREEK PAS FAIR      30  -2  24 CALM      30.29F
$$

COZ009-010-012-014-032>034-037-058>063-160100-
...CENTRAL COLORADO...

CITY           SKY/WX    TMP DP  RH WIND       PRES   REMARKS
ASPEN          FAIR      28  10  46 CALM      30.14S
BUENA VISTA    FAIR      33   9  36 S6        30.09S WCI  27
COPPER MTN     NOT AVBL
BERTHOUD PASS  FAIR      18   7  62 NW32      30.14F WCI  -3
COTTONWOOD PAS FAIR      41   0  17 W10       30.13F
GUNNISON       FAIR      30   7  37 S5        30.17F WCI  25
KREMMLING      FAIR      28  14  54 CALM      30.16F
LEADVILLE      FAIR      28  -1  28 N3        30.14F
MONARCH PASS   FAIR      21  -4  33 SW28      30.30F WCI   3
SALIDA         FAIR      41   2  19 W16       30.15F
SUNLIGHT       FAIR      27   0  31 S15       30.22F WCI  15
WILKERSON PASS FAIR      30   1  29 NW8       30.17F WCI  23
$$

COZ069>075-160100-
...SAN LUIS VALLEY/SANGRE DE CRISTO MOUNTAINS...

CITY           SKY/WX    TMP DP  RH WIND       PRES   REMARKS
ALAMOSA        FAIR      33   9  36 CALM      30.15F
DEL NORTE      FAIR      30  12  45 NE3       30.18S
LA VETA PASS   FAIR      27   0  31 SW32        N/A  WCI  10
SAGUACHE       FAIR      28  12  50 E3        30.18S
$$

COZ035-036-038>040-160100-
...NORTHERN COLORADO FRONT RANGE...

CITY           SKY/WX    TMP DP  RH WIND       PRES   REMARKS
DENVER INTL AP FAIR      54   4  13 S7        29.87F
DMNS CITY PARK NOT AVBL
AURORA         PTCLDY    51   7  16 S8        29.88F
FRONT RANGE AP NOT AVBL
ERIE MUNI ARPT FAIR      47   3  16 SW5       29.92S
BOULDER MUN AP FAIR      54   9  16 W3        29.87S
CENTENNIAL     FAIR      51  12  21 S5        29.89F
BROOMFIELD     PTCLDY    52   5  15 W18       29.89S
FORT COLLINS   FAIR      47  20  34 NW5       29.87S
LONGMONT       FAIR      46  23  41 NW6       29.89R
$$

COZ041-046-047-076>085-087-088-160100-
...PIKES PEAK/PALMER DIVIDE AND SOUTHERN FOOTHILLS...

CITY           SKY/WX    TMP DP  RH WIND       PRES   REMARKS
COLO. SPRINGS  FAIR      50  10  20 E3        29.96F
A. F. ACADEMY  FAIR      47   5  18 CALM      29.95F
SCHRIEVER AFB  FAIR      42   8  25 CALM      29.96F
CHEYENNE MTN   FAIR      44  14  29 NW8       29.93S
ELLICOTT         N/A    N/A N/A N/A S8        29.94F
FALCON         FAIR      42   1  18 W5        29.98F
FORT CARSON    FAIR      46  14  28 N7        29.93F
LIMON          FAIR      43   8  23 SW6       29.91F
MONUMENT HILL  FAIR      37  12  35 SW8       29.98F
CANON CITY     FAIR      52   9  17 W10       29.93S
WALSENBURG     FAIR      46   9  21 SW14G21   29.99S
TRINIDAD       FAIR      50   9  19 S6        29.97F
$$

COZ042>045-048>051-090-091-160100-
...NORTHEAST COLORADO...

CITY           SKY/WX    TMP DP  RH WIND       PRES   REMARKS
GREELEY ARPT   FAIR      40  17  39 NE7       29.85F
AKRON          FAIR      46  12  25 SW5       29.86F
BURLINGTON     FAIR      41  10  28 SW10      29.89F
WRAY           FAIR      46   3  17 W5        29.84F
YUMA           FAIR      41   9  26 SW7       29.84F
STERLING       FAIR      41  19  42 SW7       29.83S
HOLYOKE        FAIR      43   9  24 SW10      29.83F
FORT MORGAN    FAIR      47  19  32 NE5       29.85F
$$

COZ086-089-092>099-160100-
...SOUTHEAST COLORADO...

CITY           SKY/WX    TMP DP  RH WIND       PRES   REMARKS
PUEBLO         FAIR      54   7  15 S9        29.90S
LA JUNTA       FAIR      52   8  17 SW5       29.91F
LAMAR          FAIR      39  14  36 S7        29.89F
SPRINGFIELD      N/A     42   8  24 S12       29.95F
$$



USA.gov is the U.S. government's official web portal to all federal, state and local government web resources and services.